Overview Statistics Trail Chart Weather Telemetry Raw packets
 

This is the latest recevied weather packets stored in our database for station/object N7IGG. If no packets are shown the sender has not sent any weather packets the latest 10 day(s).

<< 44 45 46 47 48 49 50 >>
Time Temp. Humidity Pressure Rain* Wind** Luminosity Snow
1777871258 16.11° C 64% 1009.4 hPa 0 mm - 0 W/m² -
1777870955 16.67° C 64% 1009.3 hPa 0 mm - 0 W/m² -
1777870652 16.67° C 64% 1009.3 hPa 0 mm - 0 W/m² -
1777870347 16.11° C 65% 1009.3 hPa 0 mm - 0 W/m² -
1777870045 16.11° C 66% 1009.3 hPa 0 mm - 0 W/m² -
1777869742 16.67° C 65% 1009.3 hPa 0 mm - 0 W/m² -
1777869440 16.67° C 64% 1009.1 hPa 0 mm - 0 W/m² -
1777869136 16.67° C 63% 1009.1 hPa 0 mm - 0 W/m² -
1777868834 17.22° C 62% 1009.3 hPa 0 mm - 0 W/m² -
1777868530 17.22° C 61% 1009.2 hPa 0 mm - 0 W/m² -
1777868250 18.33° C 59% 1009.2 hPa 0 mm - 0 W/m² -
1777867921 18.33° C 57% 1009.1 hPa 0 mm - 0 W/m² -
1777867619 19.44° C 49% 1009.1 hPa 0 mm - 0 W/m² -
1777867316 18.89° C 50% 1009 hPa 0 mm - 0 W/m² -
1777867012 17.78° C 54% 1009 hPa 0 mm - 0 W/m² -
1777866710 17.78° C 61% 1008.9 hPa 0 mm - 0 W/m² -
1777866407 17.22° C 63% 1008.9 hPa 0 mm - 0 W/m² -
1777866104 17.22° C 64% 1009 hPa 0 mm - 0 W/m² -
1777865802 17.78° C 61% 1009.2 hPa 0 mm - 0 W/m² -
1777865499 18.89° C 57% 1008.9 hPa 0 mm - 0 W/m² -
1777865195 21.11° C 48% 1009 hPa 0 mm - 0 W/m² -
1777864893 22.22° C 42% 1009 hPa 0 mm - 1 W/m² -
1777864590 22.78° C 41% 1009.2 hPa 0 mm - 2 W/m² -
1777864286 23.33° C 40% 1009 hPa 0 mm - 7 W/m² -
1777863983 23.89° C 39% 1009 hPa 0 mm - 11 W/m² -

* Rain latest hour (hover to see other rain measurements)
** Current wind speed in m/s (hover to see current wind gust speed)